Flag for Vietnam

Past Weather in Hanoi, Vietnam — Yesterday and Last 2 Weeks

Now
82 °F

Clear.


Feels Like: 88 °F
Forecast: 90 / 78 °F
Wind: 5 mph from East

Location: Ha Noi Airport
Current Time: Sep 28, 2020 at 6:50:22 pm
Latest Report: Sep 28, 2020 at 6:00 pm
Visibility: 10 mi
Pressure29.74 "Hg
Humidity: 74%
Dew Point: 73 °F
Location of HanoiLocation

Past Weather in Hanoi — Graph

°F

Hanoi Temperature Yesterday

Maximum temperature yesterday: 82 °F (at 12:00 am)
Minimum temperature yesterday: 75 °F (at 4:30 am)
Average temperature yesterday: 79 °F

High & Low Weather Summary for the Past Weeks

 TemperatureHumidityPressure
High95 °F (Sep 16, 2:00 pm)94% (Sep 14, 1:30 am)29.92 "Hg (Sep 14, 1:30 am)
Low73 °F (Sep 24, 1:00 am)47% (Sep 17, 4:00 pm)29.56 "Hg (Sep 17, 4:00 pm)
Average82 °F78%29.76 "Hg
* Reported Sep 13 5:00 pm — Sep 28 5:30 pm, Hanoi. Weather by CustomWeather, © 2020

Note: Actual official high and low records may vary slightly from our data, if they occured in-between our weather recording intervals... More about our weather records

Hanoi Weather History for the Previous 24 Hours

Scroll right to see more
 ConditionsComfort  
Time TempWeatherWind HumidityBarometerVisibility
5:30 pm
Mon, Sep 28
84 °FPassing clouds.6 mph70%29.74 "HgN/A
5:00 pm84 °FPassing clouds.5 mph74%29.71 "HgN/A
4:30 pm86 °FPartly sunny.5 mph66%29.71 "HgN/A
4:00 pm86 °FPartly sunny.5 mph66%29.71 "HgN/A
3:30 pm86 °FPartly sunny.6 mph66%29.71 "HgN/A
3:00 pm86 °FBroken clouds.3 mph66%29.74 "HgN/A
2:30 pm84 °FPartly sunny.5 mph70%29.74 "HgN/A
2:00 pm86 °FBroken clouds.3 mph66%29.77 "HgN/A
1:30 pm86 °FPartly sunny.3 mph66%29.77 "HgN/A
1:00 pm84 °FBroken clouds.6 mph70%29.80 "HgN/A
12:30 pm82 °FPartly sunny.6 mph74%29.80 "HgN/A
12:00 pm82 °FPartly sunny.6 mph74%29.83 "HgN/A
11:30 am82 °FPartly sunny.7 mph70%29.83 "HgN/A
10:30 am81 °FBroken clouds.7 mph74%29.86 "HgN/A
10:00 am79 °FBroken clouds.8 mph79%29.86 "HgN/A
9:30 am79 °FBroken clouds.7 mph79%29.86 "HgN/A
9:00 am79 °FPartly sunny.6 mph79%29.86 "HgN/A
8:30 am77 °FPartly sunny.6 mph83%29.86 "HgN/A
8:00 am77 °FPartly sunny.5 mph83%29.86 "HgN/A
7:30 am75 °FLight rain. Partly sunny.7 mph89%29.83 "Hg4 mi
7:00 am77 °FLight rain. Partly sunny.1 mph83%29.83 "Hg5 mi
6:30 am75 °FPartly sunny.2 mph89%29.80 "HgN/A
6:00 am75 °FMore clouds than sun.2 mph89%29.80 "HgN/A
5:30 am75 °FLight rain. Mostly cloudy.5 mph89%29.80 "HgN/A
5:00 am75 °FLight rain. Mostly cloudy.5 mph89%29.77 "HgN/A
4:30 am75 °FLight rain. Mostly cloudy.6 mph83%29.77 "HgN/A
4:00 am75 °FLight rain. Mostly cloudy.3 mph83%29.77 "HgN/A
3:30 am75 °FOvercast.2 mph83%29.77 "HgN/A
3:00 am75 °FOvercast.3 mph89%29.77 "HgN/A
2:30 am75 °FLight rain. Partly cloudy.6 mph89%29.77 "HgN/A
2:00 am75 °FPassing clouds.2 mph89%29.80 "HgN/A
1:30 am75 °FPassing clouds.3 mph89%29.80 "HgN/A
1:00 am75 °FPassing clouds.5 mph89%29.80 "HgN/A
12:30 am75 °FPassing clouds.8 mph89%29.80 "HgN/A
12:00 am75 °FPassing clouds.8 mph94%29.83 "HgN/A
11:30 pm
Sun, Sep 27
75 °FPartly cloudy.6 mph94%29.83 "Hg5 mi
11:00 pm77 °FLight rain. Partly cloudy.7 mph89%29.83 "Hg6 mi
10:30 pm77 °FLight rain. Passing clouds.5 mph89%29.83 "Hg4 mi
10:00 pm77 °FLight rain. Passing clouds.6 mph89%29.83 "Hg4 mi
9:30 pm77 °FRain. Partly cloudy.6 mph89%29.83 "Hg4 mi
9:00 pm79 °FPartly cloudy.3 mph79%29.83 "HgN/A
8:30 pm79 °FPassing clouds.5 mph79%29.83 "HgN/A
8:00 pm79 °FPassing clouds.5 mph79%29.80 "HgN/A
7:30 pm79 °FPassing clouds.2 mph79%29.80 "HgN/A
7:00 pm79 °FPassing clouds.5 mph79%29.77 "HgN/A
6:30 pm79 °FLight rain. Passing clouds.5 mph84%29.77 "HgN/A
6:00 pm81 °FPassing clouds.3 mph74%29.77 "HgN/A
Weather by CustomWeather, © 2020

See weather overview